DW8501 Madrid ES current weather conditions

sailwx.info

Wind from 079 at 3 knots gusting 5

Air temperature 24.4° C
Dewpoint 16.7° C

Last reported at 2017-Aug-22 05:05 UTC.
Time now 2017-Aug-22 05:22 UTC

Location: N 40°27' W 003°35'.
View on Google Maps.

See reports from other nearby stations

  
Tides and Currents Weather Stations Pressure Air Temp Water Temp Dewpoint Dewpoint Depression Visibility Wind Speed Wind Dir Waves Ship Positions
date/time (UTC)wind fromknots sea level pressurealtimeterstation pressurevisibilityair tempwater tempwave heightnotes
2017-Aug-22 05:10 085 5 gusting 6 24.4
2017-Aug-22 05:05 079 3 gusting 5 24.4
2017-Aug-22 05:00 093 3 gusting 5 24.4
2017-Aug-22 04:55 100 3 gusting 5 24.4
2017-Aug-22 04:50 088 1 gusting 4 24.4
2017-Aug-22 04:45 092 1 gusting 4 24.4
2017-Aug-22 04:40 105 2 gusting 4 24.4
2017-Aug-22 04:35 100 1 gusting 3 24.4
2017-Aug-22 04:30 24.4
2017-Aug-22 04:25 24.4
2017-Aug-22 04:20 137 0 gusting 6 24.4
2017-Aug-22 04:15 122 2 gusting 6 24.4
2017-Aug-22 04:10 158 0 gusting 1 24.4
2017-Aug-22 04:05 175 1 gusting 2 24.4
2017-Aug-22 04:00 159 1 gusting 2 24.4
2017-Aug-22 03:55 24.4
2017-Aug-22 03:50 136 1 gusting 2 25.0
2017-Aug-22 03:45 139 1 gusting 3 25.0
2017-Aug-22 03:40 125 1 gusting 3 25.0
2017-Aug-22 03:35 25.0
2017-Aug-22 03:30 113 2 gusting 5 25.0
2017-Aug-22 03:25 118 3 gusting 5 25.0
2017-Aug-22 03:20 124 3 gusting 6 25.0
2017-Aug-22 03:15 132 2 gusting 6 25.0
2017-Aug-22 03:10 156 1 gusting 6 25.0
2017-Aug-22 03:05 167 3 gusting 8 25.0
2017-Aug-22 03:00 142 3 gusting 8 25.6
2017-Aug-22 02:55 132 2 gusting 6 25.6
2017-Aug-22 02:50 136 3 gusting 6 25.6
2017-Aug-22 02:45 137 3 gusting 5 25.6
2017-Aug-22 02:40 137 1 gusting 5 25.6
2017-Aug-22 02:35 123 1 gusting 6 25.6
2017-Aug-22 02:30 112 3 gusting 6 25.6
2017-Aug-22 02:25 104 3 gusting 9 25.6
2017-Aug-22 02:20 105 4 gusting 9 25.6
2017-Aug-22 02:15 110 6 gusting 8 25.6
2017-Aug-22 02:10 127 5 gusting 6 25.6
2017-Aug-22 02:05 122 3 gusting 6 26.1
2017-Aug-22 02:00 106 3 gusting 6 26.1
2017-Aug-22 01:55 106 4 gusting 6 26.1
2017-Aug-22 01:50 104 3 gusting 6 26.1
2017-Aug-22 01:45 106 4 gusting 6 26.1
2017-Aug-22 01:40 26.1
2017-Aug-22 01:35 141 1 gusting 7 26.7
2017-Aug-22 01:30 127 2 gusting 7 26.7
2017-Aug-22 01:25 108 2 gusting 6 26.7
2017-Aug-22 01:20 100 3 gusting 6 26.7
2017-Aug-22 01:15 111 3 gusting 6 26.7
2017-Aug-22 01:10 098 0 gusting 4 26.7
2017-Aug-22 01:05 076 1 gusting 3 26.7
2017-Aug-22 01:00 060 1 gusting 3 26.7
2017-Aug-22 00:55 049 1 gusting 3 26.7
2017-Aug-22 00:50 048 1 gusting 3 26.7
2017-Aug-22 00:45 055 1 gusting 2 26.7
2017-Aug-22 00:40 26.7
2017-Aug-22 00:35 26.7
2017-Aug-22 00:30 26.7
2017-Aug-22 00:25 153 0 gusting 4 26.7
2017-Aug-22 00:20 162 2 gusting 6 26.7
2017-Aug-22 00:15 27.2
2017-Aug-22 00:10 008 2 gusting 6 27.2
2017-Aug-22 00:05 353 3 gusting 7 27.2
2017-Aug-22 00:00 184 3 gusting 7 27.2
2017-Aug-21 23:55 173 3 gusting 9 27.8
2017-Aug-21 23:50 187 3 gusting 9 27.8
2017-Aug-21 23:45 185 8 gusting 12 27.8
2017-Aug-21 23:40 159 5 gusting 12 27.8
2017-Aug-21 23:35 136 2 gusting 13 27.8
2017-Aug-21 23:30 143 3 gusting 13 27.8
2017-Aug-21 23:25 163 4 gusting 10 28.3
2017-Aug-21 23:20 163 5 gusting 10 28.3
2017-Aug-21 23:15 160 5 gusting 8 27.8
2017-Aug-21 23:10 151 1 gusting 6 27.8
2017-Aug-21 23:05 148 2 gusting 6 27.8
2017-Aug-21 23:00 138 0 gusting 3 27.8
2017-Aug-21 22:55 27.8
2017-Aug-21 22:50 28.3
2017-Aug-21 22:45 148 1 gusting 4 28.3
2017-Aug-21 22:40 170 1 gusting 6 28.3
2017-Aug-21 22:35 184 1 gusting 6 28.3
2017-Aug-21 22:30 197 3 gusting 5 28.3
2017-Aug-21 22:25 181 2 gusting 6 28.3
2017-Aug-21 22:20 175 3 gusting 6 28.9
2017-Aug-21 22:15 234 2 gusting 6 28.9
2017-Aug-21 22:10 228 1 gusting 5 28.9
2017-Aug-21 22:05 209 3 gusting 6 28.9
2017-Aug-21 22:00 196 3 gusting 6 28.9
2017-Aug-21 21:55 223 2 gusting 5 28.9
2017-Aug-21 21:50 220 1 gusting 5 28.9
2017-Aug-21 21:45 206 1 gusting 4 29.4
2017-Aug-21 21:40 220 1 gusting 3 29.4
2017-Aug-21 21:35 216 1 gusting 3 29.4
2017-Aug-21 21:30 203 1 gusting 4 29.4
2017-Aug-21 21:25 205 1 gusting 4 30.0
2017-Aug-21 21:20 197 1 gusting 3 30.0
2017-Aug-21 21:15 220 1 gusting 3 30.6
2017-Aug-21 21:10 232 1 gusting 3 30.6
2017-Aug-21 21:05 221 1 gusting 3 30.6
2017-Aug-21 21:00 207 1 gusting 4 30.6
2017-Aug-21 20:55 200 1 gusting 4 30.6
2017-Aug-21 20:50 199 1 gusting 5 31.1
2017-Aug-21 20:45 189 1 gusting 5 31.1
2017-Aug-21 20:40 185 2 gusting 3 31.1
2017-Aug-21 20:35 194 1 gusting 3 31.7
2017-Aug-21 20:30 196 2 gusting 3 31.7
2017-Aug-21 20:25 190 1 gusting 3 31.1
2017-Aug-21 20:20 193 1 gusting 3 31.1
2017-Aug-21 20:15 184 1 gusting 3 31.7
2017-Aug-21 20:10 150 1 gusting 3 31.7
2017-Aug-21 20:05 154 2 gusting 3 31.7
2017-Aug-21 20:00 188 2 gusting 3 31.7
2017-Aug-21 19:55 205 1 gusting 3 32.2
2017-Aug-21 19:50 215 1 gusting 3 32.2
2017-Aug-21 19:45 210 1 gusting 3 31.7
2017-Aug-21 19:40 171 1 gusting 3 32.2
2017-Aug-21 19:35 115 0 gusting 1 32.2
2017-Aug-21 19:30 32.2
2017-Aug-21 19:25 32.8
2017-Aug-21 19:20 32.8
2017-Aug-21 19:15 164 0 gusting 3 33.3
2017-Aug-21 19:10 172 1 gusting 3 33.3
2017-Aug-21 19:05 160 2 gusting 3 33.9
2017-Aug-21 19:00 162 1 gusting 3 34.4
2017-Aug-21 18:55 175 1 gusting 4 35.0
2017-Aug-21 18:50 205 1 gusting 4 35.6
2017-Aug-21 18:45 230 1 gusting 4 36.1
2017-Aug-21 18:40 221 2 gusting 4 36.7
2017-Aug-21 18:35 181 1 gusting 4 36.7
2017-Aug-21 18:30 186 0 gusting 3 37.2
2017-Aug-21 18:25 219 1 gusting 4 37.8
2017-Aug-21 18:20 263 0 gusting 4 37.8
2017-Aug-21 18:15 031 1 gusting 5 37.2
2017-Aug-21 18:10 088 3 gusting 6 37.2
2017-Aug-21 18:05 209 2 gusting 6 37.2
2017-Aug-21 18:00 219 4 gusting 6 37.8
2017-Aug-21 17:55 201 3 gusting 6 37.8
2017-Aug-21 17:50 203 5 gusting 6 38.3
2017-Aug-21 17:45 37.8
2017-Aug-21 17:40 219 3 gusting 7 37.8
2017-Aug-21 17:35 228 3 gusting 9 37.8
2017-Aug-21 17:30 239 2 gusting 9 37.8
2017-Aug-21 17:25 255 4 gusting 8 38.3
2017-Aug-21 17:20 37.8
2017-Aug-21 17:15 281 2 gusting 6 37.8
2017-Aug-21 17:10 266 4 gusting 6 37.8
2017-Aug-21 17:05 261 3 gusting 7 37.8
2017-Aug-21 17:00 258 6 gusting 7 37.8
2017-Aug-21 16:55 271 5 gusting 8 37.8
2017-Aug-21 16:50 286 3 gusting 9 37.2
2017-Aug-21 16:45 294 4 gusting 9 38.3
2017-Aug-21 16:40 271 1 gusting 8 38.3
2017-Aug-21 16:35 233 1 gusting 6 40.0
2017-Aug-21 16:30 38.9
2017-Aug-21 16:25 248 3 gusting 6 38.3
2017-Aug-21 16:20 214 3 gusting 6 38.3
2017-Aug-21 16:15 166 1 gusting 6 38.9
2017-Aug-21 16:10 186 1 gusting 5 39.4
2017-Aug-21 16:05 216 1 gusting 6 39.4
2017-Aug-21 16:00 199 3 gusting 6 38.3
2017-Aug-21 15:55 181 2 gusting 5 38.3
2017-Aug-21 15:50 207 3 gusting 9 37.8
2017-Aug-21 15:45 227 3 gusting 10 37.8
2017-Aug-21 15:40 235 5 gusting 11 37.8
2017-Aug-21 15:35 200 7 gusting 11 38.9
2017-Aug-21 15:30 160 1 gusting 6 38.3
2017-Aug-21 15:25 191 2 gusting 6 38.3
2017-Aug-21 15:20 151 1 gusting 6 37.2
2017-Aug-21 15:15 124 4 gusting 6 37.8
2017-Aug-21 15:10 151 4 gusting 6 37.8
2017-Aug-21 15:05 233 2 gusting 6 38.3
2017-Aug-21 15:00 37.8
2017-Aug-21 14:55 194 1 gusting 7 37.2
2017-Aug-21 14:50 164 5 gusting 7 37.8
2017-Aug-21 14:45 173 3 gusting 6 37.8
2017-Aug-21 14:40 219 2 gusting 6 37.8
2017-Aug-21 14:35 219 1 gusting 6 37.2
2017-Aug-21 14:30 203 6 gusting 6 37.8
2017-Aug-21 14:25 194 1 gusting 4 36.7
2017-Aug-21 14:20 255 1 gusting 6 36.7
2017-Aug-21 14:15 220 1 gusting 6 37.2
2017-Aug-21 14:10 36.7
2017-Aug-21 14:05 173 1 gusting 5 36.1
2017-Aug-21 14:00 138 1 gusting 8 35.6
2017-Aug-21 13:55 129 3 gusting 8 35.6
2017-Aug-21 13:50 155 6 gusting 7 36.7
2017-Aug-21 13:45 162 2 gusting 6 36.1
2017-Aug-21 13:40 327 1 gusting 4 36.1
2017-Aug-21 13:35 318 1 gusting 5 35.6
2017-Aug-21 13:30 282 2 gusting 7 35.0
2017-Aug-21 13:25 237 1 gusting 7 35.6
2017-Aug-21 13:20 214 6 gusting 7 35.6
2017-Aug-21 13:15 185 1 gusting 9 35.0
2017-Aug-21 13:10 131 1 gusting 9 34.4
2017-Aug-21 13:05 086 4 gusting 7 34.4
2017-Aug-21 13:00 108 6 gusting 7 34.4
2017-Aug-21 12:55 138 6 gusting 7 34.4
2017-Aug-21 12:50 077 1 gusting 6 35.6
2017-Aug-21 12:45 192 2 gusting 6 34.4
2017-Aug-21 12:40 197 4 gusting 6 34.4
2017-Aug-21 12:35 176 1 gusting 8 33.9
2017-Aug-21 12:30 158 3 gusting 8 33.3
2017-Aug-21 12:25 112 3 gusting 6 33.3
2017-Aug-21 12:20 088 0 gusting 7 32.8
2017-Aug-21 12:15 079 3 gusting 9 33.3
2017-Aug-21 12:10 087 2 gusting 9 33.3
2017-Aug-21 12:05 334 4 gusting 9 32.8
2017-Aug-21 12:00 255 1 gusting 6 32.8
2017-Aug-21 11:55 201 3 gusting 6 33.3
2017-Aug-21 11:50 110 3 gusting 6 32.8
2017-Aug-21 11:45 076 3 gusting 6 32.8
2017-Aug-21 11:40 149 3 gusting 6 33.9
2017-Aug-21 11:35 33.3
2017-Aug-21 11:30 161 1 gusting 6 32.8
2017-Aug-21 11:25 133 4 gusting 9 32.2
2017-Aug-21 11:20 117 1 gusting 9 31.7
2017-Aug-21 11:15 137 3 gusting 9 32.2
2017-Aug-21 11:10 142 1 gusting 6 31.7
2017-Aug-21 11:05 158 4 gusting 6 31.7
2017-Aug-21 11:00 147 3 gusting 6 31.1
2017-Aug-21 10:55 137 4 gusting 6 31.7
2017-Aug-21 10:50 162 2 gusting 6 31.7
2017-Aug-21 10:45 30.6
2017-Aug-21 10:40 094 3 gusting 12 30.0
2017-Aug-21 10:35 071 5 gusting 12 30.0
2017-Aug-21 10:30 090 6 gusting 7 30.6
2017-Aug-21 10:25 102 2 gusting 9 29.4
2017-Aug-21 10:20 092 4 gusting 9 29.4
2017-Aug-21 10:15 093 6 gusting 9 28.9
2017-Aug-21 10:10 088 6 gusting 9 28.9
2017-Aug-21 10:05 105 7 gusting 9 28.9
2017-Aug-21 10:00 140 3 gusting 8 28.9
2017-Aug-21 09:55 078 6 gusting 8 29.4
2017-Aug-21 09:50 058 1 gusting 6 29.4
2017-Aug-21 09:45 095 1 gusting 6 28.9
2017-Aug-21 09:40 100 2 gusting 6 28.3
2017-Aug-21 09:35 064 4 gusting 6 28.3
2017-Aug-21 09:30 072 5 gusting 6 27.8
2017-Aug-21 09:25 094 6 gusting 6 28.9
2017-Aug-21 09:20 092 1 gusting 6 28.9
2017-Aug-21 09:15 081 1 gusting 6 28.3
2017-Aug-21 09:10 104 2 gusting 6 28.3
2017-Aug-21 09:05 27.2
2017-Aug-21 09:00 060 3 gusting 7 26.7
2017-Aug-21 08:55 063 4 gusting 7 26.7
2017-Aug-21 08:50 077 2 gusting 9 26.7
2017-Aug-21 08:45 072 6 gusting 9 26.1
2017-Aug-21 08:40 061 3 gusting 7 26.1
2017-Aug-21 08:35 061 3 gusting 7 26.1
2017-Aug-21 08:30 063 4 gusting 6 26.1
2017-Aug-21 08:25 066 3 gusting 6 26.7
2017-Aug-21 08:20 064 1 gusting 6 25.6
2017-Aug-21 08:15 044 3 gusting 6 25.6
2017-Aug-21 08:10 038 3 gusting 6 25.6
2017-Aug-21 08:05 058 4 gusting 6 25.6
2017-Aug-21 08:00 057 3 gusting 6 25.6
2017-Aug-21 07:55 062 3 gusting 6 25.0
2017-Aug-21 07:50 062 5 gusting 6 24.4
2017-Aug-21 07:45 038 5 gusting 6 24.4
2017-Aug-21 07:40 061 4 gusting 6 25.0
2017-Aug-21 07:35 079 3 gusting 6 25.0
2017-Aug-21 07:30 084 3 gusting 6 25.0
2017-Aug-21 07:25 081 6 gusting 6 25.0
2017-Aug-21 07:20 24.4
2017-Aug-21 07:15 087 3 gusting 6 24.4
2017-Aug-21 07:10 083 4 gusting 6 24.4
2017-Aug-21 07:05 086 3 gusting 6 24.4
2017-Aug-21 07:00 098 3 gusting 6 24.4
2017-Aug-21 06:55 094 1 gusting 5 24.4
2017-Aug-21 06:50 095 1 gusting 6 24.4
2017-Aug-21 06:45 100 3 gusting 6 24.4
2017-Aug-21 06:40 095 3 gusting 5 24.4
2017-Aug-21 06:35 103 3 gusting 4 24.4
2017-Aug-21 06:30 114 1 gusting 3 24.4
2017-Aug-21 06:25 100 1 gusting 3 24.4
2017-Aug-21 06:20 098 0 gusting 3 23.9
2017-Aug-21 06:15 089 1 gusting 3 23.9
2017-Aug-21 06:10 23.3
2017-Aug-21 06:05 116 1 gusting 4 22.8
2017-Aug-21 06:00 102 2 gusting 4 22.8
2017-Aug-21 05:55 083 2 gusting 4 22.2
2017-Aug-21 05:50 090 2 gusting 3 22.2
2017-Aug-21 05:45 125 1 gusting 3 22.2
2017-Aug-21 05:40 109 1 gusting 1 21.7
2017-Aug-21 05:35 21.7
2017-Aug-21 05:30 22.2
2017-Aug-21 05:25 081 1 gusting 3 22.2
2017-Aug-21 05:20 22.2
2017-Aug-21 05:15 088 1 gusting 4 22.2
2017-Aug-21 05:10 090 1 gusting 2 22.2
2017-Aug-21 05:05 093 1 gusting 2 22.2
2017-Aug-21 05:00 111 0 gusting 2 22.2
2017-Aug-21 04:55 122 0 gusting 1 22.2
2017-Aug-21 04:50 22.2
2017-Aug-21 04:45 22.2
2017-Aug-21 04:40 22.2
2017-Aug-21 04:35 095 1 gusting 3 22.2
2017-Aug-21 04:30 103 1 gusting 3 22.2
2017-Aug-21 04:25 22.2
2017-Aug-21 04:20 22.2
2017-Aug-21 04:15 22.2
2017-Aug-21 04:10 22.2
2017-Aug-21 04:05 092 0 gusting 1 22.2
2017-Aug-21 03:55 22.8
2017-Aug-21 03:50 22.8
2017-Aug-21 03:45 23.3
2017-Aug-21 03:40 23.3
2017-Aug-21 03:35 051 1 gusting 3 23.3
2017-Aug-21 03:30 049 1 gusting 4 23.3
2017-Aug-21 03:25 060 0 gusting 5 23.9
2017-Aug-21 03:20 055 3 gusting 6 23.9
2017-Aug-21 03:15 045 3 gusting 6 23.9
2017-Aug-21 03:10 044 3 gusting 6 23.9
2017-Aug-21 03:05 045 2 gusting 6 23.9
2017-Aug-21 03:00 042 3 gusting 6 24.4
2017-Aug-21 02:55 045 3 gusting 5 24.4
2017-Aug-21 02:50 057 1 gusting 5 24.4
2017-Aug-21 02:45 055 2 gusting 3 24.4
2017-Aug-21 02:40 062 2 gusting 3 24.4
2017-Aug-21 02:35 085 1 gusting 4 24.4
2017-Aug-21 02:30 092 2 gusting 6 24.4
2017-Aug-21 02:25 090 3 gusting 6 24.4
2017-Aug-21 02:20 092 3 gusting 5 24.4
2017-Aug-21 02:15 094 2 gusting 4 24.4
2017-Aug-21 02:10 090 3 gusting 4 24.4
2017-Aug-21 02:05 090 2 gusting 4 24.4
2017-Aug-21 02:00 089 2 gusting 5 24.4
2017-Aug-21 01:55 089 2 gusting 5 24.4
2017-Aug-21 01:50 090 3 gusting 5 24.4
2017-Aug-21 01:45 090 3 gusting 6 25.0
2017-Aug-21 01:40 089 4 gusting 6 25.0
2017-Aug-21 01:35 089 3 gusting 6 25.0
2017-Aug-21 01:30 088 5 gusting 6 25.6
2017-Aug-21 01:25 082 2 gusting 6 25.6
2017-Aug-21 01:20 061 4 gusting 6 25.6
2017-Aug-21 01:15 057 4 gusting 6 25.6
2017-Aug-21 01:10 054 3 gusting 6 25.6
2017-Aug-21 01:05 052 1 gusting 6 25.6
2017-Aug-21 01:00 070 2 gusting 6 25.6
2017-Aug-21 00:55 067 3 gusting 6 25.6
2017-Aug-21 00:50 058 3 gusting 8 25.6
2017-Aug-21 00:45 063 6 gusting 8 26.1
2017-Aug-21 00:40 054 3 gusting 6 26.1
2017-Aug-21 00:35 055 4 gusting 7 26.1
2017-Aug-21 00:30 074 6 gusting 7 26.1
2017-Aug-21 00:25 075 3 gusting 7 26.1
2017-Aug-21 00:20 072 3 gusting 9 26.7
2017-Aug-21 00:15 060 4 gusting 10 26.7
2017-Aug-21 00:10 045 6 gusting 10 26.7
2017-Aug-21 00:05 051 6 gusting 11 26.7
2017-Aug-21 00:00 054 6 gusting 13 26.7
2017-Aug-20 23:55 048 7 gusting 16 26.7
2017-Aug-20 23:50 044 12 gusting 16 26.7
2017-Aug-20 23:45 049 9 gusting 13 27.2
2017-Aug-20 23:40 057 6 gusting 13 27.2
2017-Aug-20 23:35 060 7 gusting 13 27.2
2017-Aug-20 23:30 053 7 gusting 13 27.2
2017-Aug-20 23:25 037 9 gusting 14 27.2
2017-Aug-20 23:20 051 9 gusting 14 27.8
2017-Aug-20 23:15 058 13 gusting 13 27.8
2017-Aug-20 23:10 044 7 gusting 13 27.8
2017-Aug-20 23:05 055 8 gusting 13 27.8
2017-Aug-20 23:00 067 9 gusting 13 28.3
2017-Aug-20 22:55 053 7 gusting 13 28.3
2017-Aug-20 22:50 047 7 gusting 13 28.3
2017-Aug-20 22:45 049 7 gusting 12 28.9
2017-Aug-20 22:40 041 6 gusting 13 28.9
2017-Aug-20 22:35 046 9 gusting 13 29.4
2017-Aug-20 22:30 043 6 gusting 10 29.4
2017-Aug-20 22:25 061 7 gusting 17 30.0
2017-Aug-20 22:20 089 6 gusting 17 30.0
2017-Aug-20 22:15 084 7 gusting 13 30.0
2017-Aug-20 22:10 085 6 gusting 13 30.0
2017-Aug-20 22:05 082 4 gusting 9 30.0
2017-Aug-20 22:00 078 4 gusting 11 30.0
2017-Aug-20 21:55 073 6 gusting 11 30.0
2017-Aug-20 21:50 068 5 gusting 11 30.0
2017-Aug-20 21:45 087 4 gusting 9 30.0
2017-Aug-20 21:40 070 4 gusting 12 30.0
2017-Aug-20 21:35 053 6 gusting 12 30.6
2017-Aug-20 21:30 056 6 gusting 10 30.6
2017-Aug-20 21:25 060 5 gusting 7 30.6
2017-Aug-20 21:20 053 4 gusting 8 30.6
2017-Aug-20 21:15 064 5 gusting 8 30.6
2017-Aug-20 21:10 086 6 gusting 8 30.6
2017-Aug-20 21:05 091 4 gusting 6 31.1
2017-Aug-20 21:00 082 4 gusting 6 31.1
2017-Aug-20 20:55 074 4 gusting 6 31.1
2017-Aug-20 20:50 090 3 gusting 6 31.1
2017-Aug-20 20:45 093 3 gusting 6 31.1
2017-Aug-20 20:40 089 3 gusting 6 31.7
2017-Aug-20 20:35 090 3 gusting 9 31.7
2017-Aug-20 20:30 089 3 gusting 9 31.7
2017-Aug-20 20:25 076 4 gusting 8 32.2
2017-Aug-20 20:20 077 4 gusting 6 32.2
2017-Aug-20 20:15 090 3 gusting 6 32.2
2017-Aug-20 20:10 090 3 gusting 6 31.7
2017-Aug-20 20:05 090 3 gusting 6 31.7
2017-Aug-20 20:00 090 3 gusting 6 31.7
2017-Aug-20 19:55 31.7
2017-Aug-20 19:50 31.7
2017-Aug-20 19:45 32.2
2017-Aug-20 19:40 182 1 gusting 2 32.2
2017-Aug-20 19:35 181 1 gusting 2 32.2
2017-Aug-20 19:30 116 1 gusting 2 32.2
2017-Aug-20 19:25 32.8
2017-Aug-20 19:20 181 0 gusting 3 32.8
2017-Aug-20 19:15 186 0 gusting 3 33.3
2017-Aug-20 19:10 187 1 gusting 2 33.3
2017-Aug-20 19:05 185 0 gusting 2 33.9
2017-Aug-20 19:00 34.4
2017-Aug-20 18:55 185 1 gusting 3 35.0
2017-Aug-20 18:50 165 2 gusting 3 35.6
2017-Aug-20 18:45 155 2 gusting 3 36.7
2017-Aug-20 18:40 178 1 gusting 3 37.2
2017-Aug-20 18:35 189 0 gusting 2 37.2
2017-Aug-20 18:30 37.2
2017-Aug-20 18:25 150 0 gusting 5 36.7
2017-Aug-20 18:20 153 2 gusting 5 36.7
2017-Aug-20 18:15 146 3 gusting 6 37.2
2017-Aug-20 18:10 154 0 gusting 6 37.8
2017-Aug-20 18:05 176 3 gusting 5 38.3
2017-Aug-20 18:00 179 1 gusting 5 38.3
2017-Aug-20 17:55 37.8
2017-Aug-20 17:50 064 1 gusting 3 37.8
2017-Aug-20 17:45 030 1 gusting 3 38.3
2017-Aug-20 17:40 37.8
2017-Aug-20 17:35 054 1 gusting 4 38.3
2017-Aug-20 17:30 39.4
2017-Aug-20 17:25 38.3
2017-Aug-20 17:20 309 0 gusting 4 38.3
2017-Aug-20 17:15 322 1 gusting 4 37.8
2017-Aug-20 17:10 326 3 gusting 5 37.8
2017-Aug-20 17:05 329 2 gusting 5 37.8
2017-Aug-20 17:00 290 3 gusting 5 38.3
2017-Aug-20 16:55 37.2
2017-Aug-20 16:50 312 0 gusting 7 36.7
2017-Aug-20 16:45 318 3 gusting 7 36.7
2017-Aug-20 16:40 332 2 gusting 6 36.7
2017-Aug-20 16:35 011 2 gusting 6 37.2
2017-Aug-20 16:30 026 0 gusting 6 37.2
2017-Aug-20 16:25 032 0 gusting 6 36.7
2017-Aug-20 16:20 033 4 gusting 6 37.2
2017-Aug-20 16:15 040 2 gusting 6 37.2
2017-Aug-20 16:10 107 2 gusting 4 38.3
2017-Aug-20 16:05 154 1 gusting 4 37.8
2017-Aug-20 16:00 074 2 gusting 5 37.2
2017-Aug-20 15:55 048 1 gusting 5 36.7
2017-Aug-20 15:50 052 2 gusting 6 37.2
2017-Aug-20 15:45 011 1 gusting 7 36.7
2017-Aug-20 15:40 352 3 gusting 7 37.8
2017-Aug-20 15:35 37.8
2017-Aug-20 15:30 341 0 gusting 6 36.7
2017-Aug-20 15:25 033 1 gusting 8 36.1
2017-Aug-20 15:20 027 4 gusting 8 36.1
2017-Aug-20 15:15 350 2 gusting 6 36.1
2017-Aug-20 15:10 027 6 gusting 6 35.6
2017-Aug-20 15:05 051 3 gusting 9 35.0
2017-Aug-20 15:00 046 3 gusting 9 35.0
2017-Aug-20 14:55 034 5 gusting 9 35.6
2017-Aug-20 14:50 024 1 gusting 9 35.6
2017-Aug-20 14:45 019 6 gusting 9 36.1
2017-Aug-20 14:40 320 3 gusting 5 37.2
2017-Aug-20 14:35 243 1 gusting 4 37.2
2017-Aug-20 14:30 254 1 gusting 4 36.7
2017-Aug-20 14:25 266 3 gusting 6 36.7
2017-Aug-20 14:20 247 3 gusting 6 36.7
2017-Aug-20 14:15 203 3 gusting 6 37.2
2017-Aug-20 14:10 064 3 gusting 6 37.2
2017-Aug-20 14:05 36.1
2017-Aug-20 14:00 36.1
2017-Aug-20 13:55 123 4 gusting 7 35.6
2017-Aug-20 13:50 105 2 gusting 7 35.0
2017-Aug-20 13:45 104 5 gusting 7 34.4
2017-Aug-20 13:40 077 5 gusting 6 35.0
2017-Aug-20 13:35 061 3 gusting 6 34.4
2017-Aug-20 13:30 044 2 gusting 6 34.4
2017-Aug-20 13:25 034 3 gusting 6 33.9
2017-Aug-20 13:20 052 4 gusting 6 33.9
2017-Aug-20 13:15 102 2 gusting 6 34.4
2017-Aug-20 13:10 136 2 gusting 8 33.9
2017-Aug-20 13:05 122 3 gusting 8 33.9
2017-Aug-20 13:00 103 5 gusting 8 33.9
2017-Aug-20 12:55 097 3 gusting 6 33.9
2017-Aug-20 12:50 099 1 gusting 6 33.9
2017-Aug-20 12:45 104 3 gusting 6 34.4
2017-Aug-20 12:40 038 3 gusting 5 34.4
2017-Aug-20 12:35 327 0 gusting 5 33.3
2017-Aug-20 12:30 348 1 gusting 5 32.8
2017-Aug-20 12:25 015 3 gusting 5 32.2
2017-Aug-20 12:20 087 2 gusting 5 33.3
2017-Aug-20 12:15 085 2 gusting 7 32.2
2017-Aug-20 12:10 052 1 gusting 7 32.2
2017-Aug-20 12:05 061 5 gusting 7 31.7
2017-Aug-20 12:00 108 5 gusting 7 31.7
2017-Aug-20 11:55 097 3 gusting 7 31.1
2017-Aug-20 11:50 042 6 gusting 7 31.1
2017-Aug-20 11:45 082 0 gusting 6 31.1
2017-Aug-20 11:40 049 3 gusting 6 30.6
2017-Aug-20 11:35 033 4 gusting 6 30.6
2017-Aug-20 11:30 120 6 gusting 6 31.1
2017-Aug-20 11:25 139 3 gusting 6 30.6
2017-Aug-20 11:20 120 3 gusting 9 30.0
2017-Aug-20 11:15 061 6 gusting 9 30.0
2017-Aug-20 11:10 031 4 gusting 6 29.4
2017-Aug-20 11:05 062 2 gusting 9 29.4
2017-Aug-20 11:00 085 2 gusting 9 30.0
2017-Aug-20 10:55 060 1 gusting 6 29.4
2017-Aug-20 10:50 040 3 gusting 7 28.9
2017-Aug-20 10:45 047 6 gusting 8 28.9
2017-Aug-20 10:40 068 6 gusting 8 28.9
2017-Aug-20 10:35 087 3 gusting 7 28.9
2017-Aug-20 10:30 093 3 gusting 7 29.4
2017-Aug-20 10:25 122 1 gusting 9 29.4
2017-Aug-20 10:20 089 2 gusting 9 28.3
2017-Aug-20 10:15 065 6 gusting 9 28.3
2017-Aug-20 10:10 090 4 gusting 7 28.9
2017-Aug-20 10:05 128 1 gusting 3 28.9
2017-Aug-20 10:00 112 1 gusting 6 28.9
2017-Aug-20 09:55 090 1 gusting 8 27.8
2017-Aug-20 09:50 074 5 gusting 8 27.2
2017-Aug-20 09:45 072 5 gusting 9 27.8
2017-Aug-20 09:40 069 4 gusting 9 27.2
2017-Aug-20 09:35 050 6 gusting 9 27.2
2017-Aug-20 09:30 034 3 gusting 6 26.7
2017-Aug-20 09:25 038 6 gusting 6 26.7
2017-Aug-20 09:20 029 1 gusting 6 26.7
2017-Aug-20 09:15 032 0 gusting 7 26.7
2017-Aug-20 09:10 068 6 gusting 7 27.2
2017-Aug-20 09:05 059 1 gusting 6 26.7
2017-Aug-20 09:00 029 2 gusting 6 26.1
2017-Aug-20 08:55 013 3 gusting 6 26.7
2017-Aug-20 08:50 013 6 gusting 6 26.7
2017-Aug-20 08:45 033 2 gusting 6 26.7
2017-Aug-20 08:40 053 3 gusting 6 26.7
2017-Aug-20 08:35 26.1
2017-Aug-20 08:30 098 3 gusting 5 27.2
2017-Aug-20 08:25 086 1 gusting 6 26.1
2017-Aug-20 08:20 085 3 gusting 6 26.1
2017-Aug-20 08:15 098 1 gusting 6 25.6
2017-Aug-20 08:10 064 3 gusting 6 25.0
2017-Aug-20 08:05 057 5 gusting 8 24.4
2017-Aug-20 08:00 074 6 gusting 8 25.0
2017-Aug-20 07:55 081 3 gusting 8 24.4
2017-Aug-20 07:50 060 5 gusting 9 24.4
2017-Aug-20 07:45 041 3 gusting 9 23.9
2017-Aug-20 07:40 069 6 gusting 9 23.9
2017-Aug-20 07:35 081 6 gusting 9 24.4
2017-Aug-20 07:30 093 8 gusting 9 24.4
2017-Aug-20 07:25 181 2 gusting 101 24.4
2017-Aug-20 07:20 215 1 gusting 101 23.9
2017-Aug-20 07:15 210 103 gusting 101 23.9
2017-Aug-20 07:10 106 4 gusting 6 23.9
2017-Aug-20 07:05 124 2 gusting 3 24.4
2017-Aug-20 07:00 128 1 gusting 3 25.0
2017-Aug-20 06:55 118 1 gusting 3 24.4
2017-Aug-20 06:50 110 1 gusting 3 24.4
2017-Aug-20 06:45 112 1 gusting 5 23.9
2017-Aug-20 06:40 104 3 gusting 6 23.3
2017-Aug-20 06:35 095 3 gusting 6 23.3
2017-Aug-20 06:30 090 4 gusting 6 22.8
2017-Aug-20 06:25 088 2 gusting 6 23.3
2017-Aug-20 06:20 077 3 gusting 6 22.8
2017-Aug-20 06:15 080 3 gusting 6 22.8
2017-Aug-20 06:10 091 3 gusting 5 22.8
2017-Aug-20 06:05 091 3 gusting 5 22.8
2017-Aug-20 06:00 090 3 gusting 5 22.2
2017-Aug-20 05:55 084 2 gusting 5 22.2
2017-Aug-20 05:50 064 3 gusting 7 22.2
2017-Aug-20 05:45 066 3 gusting 7 21.7
2017-Aug-20 05:40 088 5 gusting 7 21.7
2017-Aug-20 05:35 075 3 gusting 9 21.7
2017-Aug-20 05:30 060 5 gusting 9 21.7
2017-Aug-20 05:25 071 5 gusting 7 22.2
2017-Aug-20 05:20 089 5 gusting 6 21.7
2017-Aug-20 05:15 086 4 gusting 5 22.2
2017-Aug-20 05:10 085 3 gusting 6 22.2
2017-Aug-20 05:05 075 2 gusting 11 22.2
2017-Aug-20 05:00 058 5 gusting 12 22.2